Stations météo

réclame
Mon MeteoGroup
Putbus, Allemagne (10093): Température de l'air & dewpoint: 10.07.2018 00:00:00 - 16.07.2018 00:00:00 (CEST)Putbus, Allemagne (10093): Température de l'air 5cm & Température de l'air -5cm: 10.07.2018 00:00:00 - 16.07.2018 00:00:00 (CEST)Putbus, Allemagne (10093): Température de l'air -20cm & Température de l'air -100cm: 10.07.2018 00:00:00 - 16.07.2018 00:00:00 (CEST)Putbus, Allemagne (10093): Vitesse du vent & gusts: 10.07.2018 00:00:00 - 16.07.2018 00:00:00 (CEST)Putbus, Allemagne (10093): Direction du vent: 10.07.2018 00:00:00 - 16.07.2018 00:00:00 (CEST)Putbus, Allemagne (10093): reduced air pressure: 10.07.2018 00:00:00 - 16.07.2018 00:00:00 (CEST)Putbus, Allemagne (10093): visibility: 10.07.2018 00:00:00 - 16.07.2018 00:00:00 (CEST)Putbus, Allemagne (10093): Ensoleillement: 10.07.2018 00:00:00 - 16.07.2018 00:00:00 (CEST)Putbus, Allemagne (10093): Quantités de précipitations: 10.07.2018 00:00:00 - 16.07.2018 00:00:00 (CEST)
Date & Time tt [°C] td [°C] tt 5cm [°C] tt -5cm [°C] tt -20cm [°C] tt -100cm [°C] ff [km/h] ff [knt] fx [km/h] fx [knt] dd ppp [hPa] vv [km] sd [min] rr [mm]
16.07.2018 00:00:00 15,7 14,4 13,7 19,5 22,5 16,9 11 6 16 8 WNW 1016,5 19 0 0,0
15.07.2018 23:00:00 16,0 14,0 14,5 20,9 23,2 16,9 12 6 16 9 WNW 1016,4 24 0 0,0
15.07.2018 22:00:00 16,6 13,9 15,2 22,8 23,8 16,9 10 6 14 8 W 1016,3 23 21 0,0
15.07.2018 21:00:00 19,1 14,0 18,1 25,9 24,1 17,0 9 5 17 9 NW 1016,2 36 60 0,0
15.07.2018 20:00:00 20,5 13,8 21,6 28,5 24,2 17,0 13 7 20 11 WNW 1016,1 29 60 0,0
15.07.2018 19:00:00 22,0 13,6 23,8 30,7 23,9 17,0 15 8 26 14 NW 1016,2 28 60 0,0
15.07.2018 18:00:00 22,4 13,1 25,1 32,1 23,3 17,0 18 10 29 16 NW 1016,5 16 60 0,0
15.07.2018 17:00:00 22,3 13,3 26,9 32,6 22,5 17,0 13 7 23 12 N 1016,7 11 59 0,0
15.07.2018 16:00:00 21,9 12,7 27,3 32,0 21,5 17,0 9 5 29 15 N 1017,2 19 60 0,0
15.07.2018 15:00:00 20,7 13,1 26,0 29,4 20,7 17,0 12 6 28 15 NNW 1017,5 28 43 0,0
15.07.2018 14:00:00 19,9 13,3 24,0 25,9 20,2 17,0 14 8 24 13 WNW 1018,0 17 8 0,0
15.07.2018 13:00:00 18,8 13,7 21,8 25,5 19,5 17,0 16 9 27 14 NW 1018,1 16 7 0,0
15.07.2018 12:00:00 19,7 13,3 23,0 25,5 18,7 17,0 17 9 27 14 NW 1018,0 20 29 0,0
15.07.2018 11:00:00 19,9 12,9 22,9 23,2 18,0 17,0 13 7 26 14 NW 1018,0 19 35 0,0
15.07.2018 10:00:00 19,1 13,4 20,8 20,4 17,5 17,0 16 8 25 14 WNW 1017,7 28 25 0,0
15.07.2018 09:00:00 19,8 14,4 24,1 18,1 17,2 17,0 12 6 23 12 N 1017,6 19 32 0,0
15.07.2018 08:00:00 17,9 14,7 19,8 16,6 17,1 17,0 14 8 22 12 NNW 1017,3 13 60 0,0
15.07.2018 07:00:00 16,3 14,2 15,9 14,6 17,2 17,0 12 6 20 11 NW 1017,2 12 60 0,0
15.07.2018 06:00:00 14,3 13,4 13,3 13,9 17,5 17,0 10 5 16 8 WNW 1017,2 19 34 0,0
15.07.2018 05:00:00 12,9 12,3 11,1 13,8 17,9 17,0 12 7 17 9 W 1017,2 14 0 0,0
15.07.2018 04:00:00 12,9 12,1 11,8 14,0 18,3 17,0 13 7 19 11 W 1017,1 18 0 0,0
15.07.2018 03:00:00 12,6 11,6 11,4 14,4 18,7 17,0 16 8 18 10 W 1017,2 24 0 0,0
15.07.2018 02:00:00 12,6 11,6 11,2 14,9 19,2 17,0 13 7 17 9 W 1017,5 27 0 0,0
15.07.2018 01:00:00 12,6 11,4 11,4 15,5 19,7 16,9 14 8 16 9 WSW 1017,6 32 0 0,0
15.07.2018 00:00:00 13,0 11,3 11,6 16,3 20,3 16,9 13 7 15 8 W 1017,7 53 0 0,0
14.07.2018 23:00:00 13,1 11,2 11,2 17,4 20,9 16,9 11 6 13 7 W 1017,8 54 0 0,0
14.07.2018 22:00:00 14,4 11,4 12,3 19,0 21,4 16,9 9 5 23 13 W 1018,0 68 13 0,0
14.07.2018 21:00:00 17,0 11,3 16,4 21,2 21,8 16,9 13 7 27 14 WNW 1017,7 70 16 0,0
14.07.2018 20:00:00 17,4 10,9 18,0 23,0 21,9 16,9 17 9 31 17 WNW 1017,7 39 26 0,0
14.07.2018 19:00:00 17,6 10,8 18,4 24,7 21,9 16,9 22 12 37 20 WNW 1017,9 55 47 0,0
14.07.2018 18:00:00 18,0 11,1 19,7 25,7 21,7 16,9 22 12 41 22 WNW 1017,7 47 29 0,0
14.07.2018 17:00:00 18,6 11,0 20,8 26,0 21,4 16,9 23 13 38 20 W 1018,1 58 28 0,0
14.07.2018 16:00:00 18,3 11,0 21,1 26,0 21,0 16,9 24 13 37 20 WNW 1018,4 29 19 0,0
14.07.2018 15:00:00 18,5 11,2 22,4 26,1 20,4 16,9 27 14 42 23 W 1018,8 14 39 0,0
14.07.2018 14:00:00 17,8 11,5 21,0 23,8 20,1 16,9 26 14 39 21 WNW 1019,1 19 2 0,0
14.07.2018 13:00:00 16,7 11,5 19,0 22,3 19,8 16,9 23 13 38 20 WNW 1019,2 28 0 0,0
14.07.2018 12:00:00 17,2 12,3 19,6 22,5 19,4 16,9 21 12 37 20 W 1019,1 32 6 0,0
14.07.2018 11:00:00 18,0 12,5 20,6 21,6 19,0 16,9 27 15 39 21 WNW 1018,7 24 19 0,0
14.07.2018 10:00:00 17,1 13,1 18,9 19,7 18,8 16,9 23 13 37 20 WNW 1018,4 22 5 0,0
14.07.2018 09:00:00 16,9 13,4 18,0 18,5 18,8 16,9 18 10 32 17 WNW 1018,2 30 0 0,0
14.07.2018 08:00:00 16,4 13,3 16,9 17,4 18,9 16,9 19 11 32 18 WNW 1017,8 23 0 0,0
14.07.2018 07:00:00 16,4 14,0 16,5 17,0 19,1 16,9 16 9 34 18 NW 1017,7 21 0 0,0
14.07.2018 06:00:00 16,3 14,6 16,0 16,5 19,4 16,9 20 11 29 16 WNW 1017,5 17 0 0,0
14.07.2018 05:00:00 16,2 14,8 15,0 16,6 19,7 16,9 17 9 29 16 WNW 1017,1 15 0 0,0
14.07.2018 04:00:00 16,8 14,8 15,7 17,0 20,1 16,9 17 9 29 16 WNW 1017,0 20 0 0,0
14.07.2018 03:00:00 17,2 15,5 16,1 17,5 20,6 16,9 19 11 32 17 WNW 1016,9 17 0 0,0
14.07.2018 02:00:00 17,7 15,3 16,7 17,9 21,0 16,9 22 12 33 18 WNW 1016,9 21 0 0,0
14.07.2018 01:00:00 18,2 15,5 17,0 18,5 21,5 16,9 22 12 35 19 W 1016,9 25 0 0,0
14.07.2018 00:00:00 18,4 15,3 17,2 19,2 22,1 16,9 19 10 28 15 W 1016,8 29 0 0,0
13.07.2018 23:00:00 19,4 15,9 18,1 20,1 22,7 16,9 19 10 29 15 W 1016,5 27 0 0,0
13.07.2018 22:00:00 19,9 15,6 18,6 21,5 23,3 16,9 18 10 27 14 W 1016,4 43 0 0,0
13.07.2018 21:00:00 21,6 14,1 20,4 23,8 23,7 16,9 14 8 29 16 W 1016,1 40 60 0,0
13.07.2018 20:00:00 23,2 14,8 23,3 26,1 23,9 16,9 20 11 30 16 W 1015,7 69 60 0,0
13.07.2018 19:00:00 24,2 15,2 25,4 27,9 23,9 16,9 20 11 32 18 WNW 1015,7 20 60 0,0
13.07.2018 18:00:00 25,5 14,7 27,3 29,2 23,6 16,9 21 12 34 18 WNW 1015,8 31 60 0,0
13.07.2018 17:00:00 25,9 14,9 28,2 29,6 23,1 16,9 19 10 29 16 WNW 1016,3 20 60 0,0
13.07.2018 16:00:00 25,6 14,7 29,5 29,2 22,5 16,9 16 8 32 17 NW 1016,2 23 60 0,0
13.07.2018 15:00:00 25,0 16,2 29,3 28,7 21,9 16,9 20 11 29 16 WNW 1016,1 23 60 0,0
13.07.2018 14:00:00 24,4 16,4 29,1 28,1 21,1 16,9 18 10 32 17 WNW 1016,0 23 60 0,0
13.07.2018 13:00:00 24,4 16,5 28,8 27,2 20,3 17,0 18 10 29 16 WNW 1016,2 16 60 0,0
13.07.2018 12:00:00 23,0 16,6 26,9 25,7 19,5 17,0 20 11 30 16 WNW 1016,0 14 60 0,0
13.07.2018 11:00:00 22,7 16,7 26,3 24,3 18,7 17,0 18 10 31 17 NW 1015,7 16 60 0,0
13.07.2018 10:00:00 21,5 16,1 24,4 23,1 18,0 17,0 18 10 29 16 WNW 1015,6 12 60 0,0
13.07.2018 09:00:00 21,1 16,7 23,7 20,9 17,5 17,0 16 9 26 14 WNW 1015,3 12 60 0,0
13.07.2018 08:00:00 19,1 16,1 19,5 17,9 17,4 17,0 14 8 21 11 WNW 1015,3 27 44 0,0
13.07.2018 07:00:00 17,1 15,6 16,4 15,9 17,5 17,0 9 5 18 10 W 1015,0 23 23 0,0
13.07.2018 06:00:00 16,5 15,1 15,3 15,4 17,7 17,0 12 6 16 9 WNW 1014,6 21 3 0,0
13.07.2018 05:00:00 16,4 14,7 14,4 15,5 17,9 17,0 11 6 16 9 WNW 1014,3 23 0 0,0
13.07.2018 04:00:00 16,2 14,3 14,9 15,8 18,2 17,0 15 8 19 11 W 1014,3 19 0 0,0
13.07.2018 03:00:00 15,9 14,0 14,2 15,7 18,5 17,0 14 8 19 10 W 1014,6 22 0 0,0
13.07.2018 02:00:00 15,1 14,7 14,1 16,0 18,9 17,0 12 6 15 8 W 1014,6 4,6 0 0,0
13.07.2018 01:00:00 14,8 14,5 13,7 16,7 19,3 17,0 6 3 10 5 W 1014,8 5 0 0,0
13.07.2018 00:00:00 15,6 15,1 14,2 17,6 19,6 17,0 6 3 9 5 WSW 1015,2 8 0 0,0
12.07.2018 23:00:00 16,7 15,9 15,1 18,6 20,0 17,1 6 3 8 5 NW 1015,2 11 0 0,0
12.07.2018 22:00:00 17,8 16,4 16,6 19,7 20,2 17,1 4 2 16 9 N 1015,0 13 0 0,0
12.07.2018 21:00:00 19,3 15,8 18,6 21,4 20,3 17,1 8 5 13 7 N 1014,5 28 42 0,0
12.07.2018 20:00:00 20,0 16,4 21,3 21,8 20,2 17,1 7 4 11 6 N 1014,0 25 12 0,0
12.07.2018 19:00:00 19,8 16,6 20,3 22,7 20,0 17,1 7 4 15 8 N 1013,7 21 16 0,0
12.07.2018 18:00:00 19,9 16,6 20,7 22,9 19,8 17,1 10 5 19 10 ENE 1013,9 20 0 0,0
12.07.2018 17:00:00 20,1 16,1 22,1 22,5 19,5 17,1 13 7 23 12 NNE 1013,8 20 0 0,0
12.07.2018 16:00:00 19,4 16,4 20,6 21,6 19,3 17,1 14 7 29 16 N 1013,9 16 0 0,0
12.07.2018 15:00:00 19,1 15,6 20,4 21,5 19,1 17,1 18 10 29 16 NNE 1014,0 17 0 0,0
12.07.2018 14:00:00 18,4 15,7 18,4 20,8 18,8 17,2 19 10 32 18 N 1013,8 10 0 0,0
12.07.2018 13:00:00 19,4 15,3 20,3 20,9 18,5 17,2 19 10 33 18 N 1013,7 13 0 0,0
12.07.2018 12:00:00 19,1 14,9 20,2 20,4 18,2 17,2 20 11 31 17 N 1013,6 20 1 0,0
12.07.2018 11:00:00 18,5 14,8 19,7 19,0 18,0 17,2 18 10 32 17 NNE 1013,6 17 0 0,0
12.07.2018 10:00:00 18,3 14,2 18,4 18,4 17,9 17,2 14 8 30 16 NNE 1013,7 37 0 0,0
12.07.2018 09:00:00 18,1 13,7 17,9 17,7 17,9 17,2 15 8 26 14 NNE 1013,6 32 0 0,0
12.07.2018 08:00:00 17,9 13,9 16,9 17,3 18,0 17,2 17 9 29 16 NNE 1013,5 34 0 0,0
12.07.2018 07:00:00 17,2 14,2 15,9 16,9 18,1 17,2 9 5 22 12 NNE 1013,5 39 0 0,0
12.07.2018 06:00:00 17,0 14,8 15,7 16,9 18,2 17,2 14 8 22 12 N 1013,4 24 0 0,0
12.07.2018 05:00:00 17,2 16,0 16,2 17,1 18,4 17,3 14 8 20 11 NNE 1013,6 17 0 0,0
12.07.2018 04:00:00 17,0 16,3 16,3 17,4 18,5 17,3 11 6 19 10 N 1013,6 11 0 0,0
12.07.2018 03:00:00 17,4 16,8 16,8 17,6 18,6 17,3 11 6 18 10 NE 1014,3 10 0 0,0
12.07.2018 02:00:00 17,3 16,7 16,7 17,7 18,8 17,3 9 5 17 9 NNE 1014,3 10 0 0,0
12.07.2018 01:00:00 17,4 16,7 16,8 18,0 18,9 17,3 10 5 17 9 NE 1014,9 10 0 0,0
12.07.2018 00:00:00 17,4 16,8 16,9 18,2 19,1 17,3 8 5 18 10 NE 1015,1 9 0 0,0
11.07.2018 23:00:00 17,7 17,0 17,3 18,5 19,3 17,3 8 5 16 9 NE 1015,2 8 0 0,0
11.07.2018 22:00:00 17,4 16,7 16,9 18,8 19,4 17,3 9 5 14 8 N 1015,2 8 0 0,0
11.07.2018 21:00:00 17,5 16,7 17,1 19,5 19,5 17,4 5 3 12 6 NNE 1014,9 7 0 0,0
11.07.2018 20:00:00 18,3 17,1 18,0 20,3 19,5 17,4 3 2 6 3 NNE 1015,0 9 0 0,0
11.07.2018 19:00:00 18,4 16,7 18,0 20,7 19,5 17,4 0 0 7 4 N 1015,0 16 0 0,2
11.07.2018 18:00:00 18,3 17,2 18,3 20,5 19,4 17,4 5 3 9 5 ESE 1015,1 8 0 0,5
11.07.2018 17:00:00 18,4 16,7 18,3 20,4 19,3 17,4 6 3 15 8 E 1015,3 12 0 0,0
11.07.2018 16:00:00 18,7 16,4 19,1 20,9 19,2 17,4 9 5 18 10 ENE 1015,2 23 0 0,0
11.07.2018 15:00:00 19,1 16,3 19,9 21,2 18,9 17,4 11 6 21 11 NE 1015,3 6 0 0,0
11.07.2018 14:00:00 18,8 16,1 20,0 20,8 18,6 17,5 16 9 23 12 ENE 1015,5 16 0 0,0
11.07.2018 13:00:00 18,7 15,8 19,1 20,1 18,4 17,5 16 9 23 12 NE 1015,3 11 0 0,0
11.07.2018 12:00:00 18,0 16,3 17,7 18,9 18,3 17,5 14 8 24 13 ENE 1015,4 21 0 0,1
11.07.2018 11:00:00 17,6 16,2 17,3 18,5 18,2 17,5 14 8 25 13 ENE 1015,6 11 0 0,2
11.07.2018 10:00:00 17,6 16,1 17,2 18,3 18,2 17,5 12 7 26 14 ENE 1015,7 14 0 0,0
11.07.2018 09:00:00 17,6 16,2 17,2 18,1 18,1 17,5 13 7 21 12 ENE 1015,6 19 0 0,1
11.07.2018 08:00:00 17,4 16,2 17,1 17,8 18,1 17,5 12 7 26 14 ENE 1015,4 11 0 0,1
11.07.2018 07:00:00 17,4 16,2 17,1 17,4 18,1 17,5 14 7 30 16 ENE 1015,4 14 0 0,0
11.07.2018 06:00:00 17,1 15,9 16,5 17,1 18,1 17,6 9 5 32 17 ENE 1015,3 18 0 0,1
11.07.2018 05:00:00 17,1 16,2 16,5 16,9 18,3 17,6 17 9 31 17 NE 1015,2 11 0 0,0
11.07.2018 04:00:00 16,9 16,0 16,3 16,8 18,4 17,6 16 8 26 14 NE 1015,4 18 0 0,0
11.07.2018 03:00:00 17,2 16,3 16,7 17,0 18,6 17,6 17 9 29 16 ENE 1015,9 12 0 0,0
11.07.2018 02:00:00 17,2 16,2 16,4 17,4 18,7 17,6 14 8 31 17 ENE 1016,3 13 0 0,0
11.07.2018 01:00:00 17,3 16,1 16,9 17,7 18,9 17,6 17 9 32 17 ENE 1016,6 21 0 0,0
11.07.2018 00:00:00 17,3 16,3 17,0 18,0 19,0 17,6 16 9 27 14 ENE 1016,6 11 0 0,0
10.07.2018 23:00:00 17,4 16,6 17,2 18,3 19,1 17,6 14 8 20 11 ENE 1017,0 10 0 0,0
10.07.2018 22:00:00 17,4 16,5 17,2 18,7 19,1 17,6 10 5 18 10 ENE 1016,9 12 0 0,0
10.07.2018 21:00:00 17,6 16,6 17,5 19,4 19,1 17,7 10 5 20 11 ENE 1016,9 12 0 0,0
10.07.2018 20:00:00 18,2 16,6 18,9 19,8 18,9 17,7 11 6 23 13 ENE 1016,7 15 9 0,0
10.07.2018 19:00:00 17,8 16,5 18,1 19,1 18,8 17,7 11 6 24 13 ENE 1016,5 16 0 0,0
10.07.2018 18:00:00 16,7 16,3 17,1 17,6 19,0 17,7 5 3 16 9 ENE 1016,4 11 0 2,7
10.07.2018 17:00:00 14,1 14,1 14,2 16,4 19,3 17,7 15 8 25 13 W 1016,7 2,4 0 7,6
10.07.2018 16:00:00 13,5 13,1 13,5 17,6 19,6 17,7 18 10 27 15 WSW 1016,9 6 0 1,5
10.07.2018 15:00:00 14,2 13,6 14,3 19,1 19,7 17,7 14 8 21 11 W 1017,2 5 0 1,3
10.07.2018 14:00:00 16,6 12,2 17,0 20,2 19,6 17,7 9 5 18 10 NE 1017,2 36 0 0,0
10.07.2018 13:00:00 16,0 11,6 16,7 20,4 19,5 17,7 6 3 20 11 N 1017,1 30 0 0,0
10.07.2018 12:00:00 16,1 11,0 17,8 20,9 19,2 17,7 11 6 19 11 E 1016,9 37 0 0,0
10.07.2018 11:00:00 15,6 10,5 17,2 19,5 19,1 17,7 6 3 9 5 E 1016,9 26 0 0,0
10.07.2018 10:00:00 15,2 9,7 16,1 19,0 18,9 17,7 3 1 10 5 E 1016,8 31 0 0,0
10.07.2018 09:00:00 14,4 9,0 15,8 18,3 18,9 17,7 8 5 12 7 NNE 1016,5 36 0 0,0
10.07.2018 08:00:00 13,5 9,4 14,3 17,2 18,9 17,7 4 2 11 6 W 1016,0 28 0 0,0
10.07.2018 07:00:00 13,1 9,2 13,4 16,6 19,1 17,7 8 4 14 8 W 1015,9 27 0 0,0
10.07.2018 06:00:00 12,3 9,3 12,0 16,2 19,4 17,7 8 5 16 8 WSW 1015,7 29 0 0,0
10.07.2018 05:00:00 12,9 9,3 12,6 16,5 19,6 17,7 7 4 12 6 SW 1015,6 32 0 0,0
10.07.2018 04:00:00 13,2 9,3 12,5 16,8 19,9 17,7 7 4 13 7 SW 1015,4 28 0 0,0
10.07.2018 03:00:00 13,1 9,3 12,1 17,1 20,2 17,7 5 3 14 8 SW 1015,6 35 0 0,0
10.07.2018 02:00:00 13,4 9,6 12,9 17,4 20,6 17,7 6 3 15 8 SSW 1015,6 33 0 0,0
10.07.2018 01:00:00 13,3 9,7 12,7 17,8 21,0 17,7 5 3 12 7 S 1015,6 32 0 0,0
10.07.2018 00:00:00 13,6 9,5 13,2 18,2 21,4 17,7 8 4 18 10 W 1015,5 33 0 0,0

tt = Température de l'air
td = dewpoint
tt 5cm = Température de l'air 5cm
tt -5cm = Température de l'air -5cm
tt -20cm = Température de l'air -20cm
tt -100cm = Température de l'air -100cm
ff = Vitesse du vent
fx = gusts
dd = Direction du vent
ppp = reduced air pressure
vv = visibility
sd = Ensoleillement
rr = Quantités de précipitations

stations d'obs. à proximité